Station: Hindmarsh Island  

  Atmospheric Gas Attenuation - ITU Rec 676-11   ----------------- dB/100km -----------------
Date Time Temp RH % AH g/m3 Dew Point Wind Direction Speed kph Gust kph Barometer mB Rainfall Since 9am 24GHz 47GHz 76GHz 122GHz 134GHz 241GHz
06/09 13:20 15.1 67 8.64 9 11 15 1023.4 0 19.6 26.0 39.8 104.2 98.1 337.5
06/09 13:10 15 71 9.1 9.8 11 15 1023.6 0 20.6 26.7 41.7 109.3 104.3 359.3
06/09 13:00 15.2 71 9.22 10 13 19 1023.7 0 20.8 26.9 42.1 110.3 105.7 364.0
06/09 12:50 15.6 73 9.71 10.8 13 19 1023.7 0 21.9 27.6 43.8 115.1 111.7 385.1
06/09 12:40 15.4 73 9.59 10.6 13 17 1023.7 0 21.6 27.4 43.5 114.1 110.4 380.4
06/09 12:30 15 72 9.23 10 13 17 1023.9 0 20.9 27.0 42.2 110.7 106.1 365.5
06/09 12:20 15 73 9.36 10.2 15 19 1023.9 0 21.1 27.2 42.7 112.2 107.8 371.6
06/09 12:10 15 76 9.75 10.8 17 20 1024.1 0 22.0 27.8 44.4 116.5 113.1 390.1
06/09 12:00 15.4 75 9.85 11 15 20 1024.2 0 22.2 27.9 44.5 117.0 113.9 392.9
06/09 11:50 14.9 71 9.05 9.7 11 15 1024.3 0 20.5 26.7 41.5 109.0 103.9 357.6
06/09 11:40 14.7 72 9.07 9.7 11 15 1024.4 0 20.5 26.8 41.7 109.5 104.4 359.5
06/09 11:30 14.7 72 9.07 9.7 9 13 1024.4 0 20.5 26.8 41.7 109.5 104.4 359.5
06/09 11:20 14.7 71 8.94 9.5 9 13 1024.4 0 20.3 26.6 41.2 108.1 102.7 353.4
06/09 11:10 14.6 72 9.01 9.6 9 13 1024.4 0 20.4 26.7 41.5 109.0 103.7 357.1
06/09 11:00 14.6 74 9.26 10 7 11 1024.3 0 20.9 27.2 42.6 111.7 107.1 368.9
06/09 10:50 14.4 73 9.02 9.6 9 13 1024.3 0 20.4 26.8 41.7 109.3 104.1 358.5
06/09 10:40 14.7 72 9.07 9.7 13 17 1024.3 0 20.5 26.8 41.7 109.5 104.4 359.5
06/09 10:30 14.9 77 9.81 10.9 19 22 1024.2 0 22.1 28.0 44.7 117.3 114.1 393.5
06/09 10:20 14.5 76 9.45 10.3 20 24 1024.3 0 21.4 27.5 43.4 113.9 109.8 378.3
06/09 10:10 15 74 9.49 10.4 15 19 1024.4 0 21.4 27.4 43.3 113.6 109.6 377.8
06/09 10:00 14.6 73 9.14 9.8 13 19 1024.3 0 20.7 27.0 42.1 110.4 105.5 363.2
06/09 09:50 15.1 75 9.68 10.7 13 19 1024.2 0 21.8 27.7 44.0 115.6 112.0 386.3
06/09 09:40 14.3 77 9.46 10.3 13 17 1024.1 0 21.4 27.6 43.5 114.3 110.2 379.7
06/09 09:30 13.7 79 9.36 10.1 13 17 1024 0 21.2 27.6 43.5 114.0 109.7 377.8
06/09 09:20 13.5 80 9.36 10.1 11 15 1023.9 0 21.2 27.6 43.6 114.3 110.0 378.8
06/09 09:10 13.2 83 9.53 10.4 9 13 1023.8 0 21.6 28.0 44.4 116.7 112.7 388.4
06/09 09:00 13 86 9.75 10.7 11 17 1024 0 22.1 28.5 45.5 119.5 116.1 400.2
06/09 08:50 12.7 87 9.69 10.6 15 20 1023.8 1 22.0 28.5 45.4 119.2 115.7 398.7
06/09 08:40 13.2 85 9.76 10.7 15 20 1023.7 1 22.1 28.4 45.4 119.2 115.9 399.6
06/09 08:30 13.4 84 9.77 10.8 13 19 1023.4 1 22.1 28.4 45.3 119.0 115.7 398.9
06/09 08:20 13.1 86 9.81 10.8 9 15 1023.2 1 22.2 28.5 45.7 119.9 116.7 402.4
06/09 08:10 12.8 87 9.75 10.7 11 15 1023.1 1 22.1 28.5 45.6 119.7 116.3 401.0
06/09 08:00 12.6 86 9.52 10.3 13 15 1023 1 21.6 28.2 44.7 117.4 113.4 390.7
06/09 07:50 12.5 88 9.68 10.6 13 17 1022.8 1 22.0 28.5 45.4 119.3 115.8 399.0
06/09 07:40 12.2 89 9.61 10.4 11 17 1022.6 1 21.8 28.4 45.3 118.9 115.2 397.0
06/09 07:30 12.1 89 9.55 10.3 17 26 1022.6 1 21.7 28.4 45.1 118.4 114.5 394.6
06/09 07:20 12 89 9.49 10.2 24 30 1022.4 1 21.6 28.3 44.9 117.9 113.8 392.1
06/09 07:10 11.7 89 9.31 9.9 11 15 1022.2 1 21.2 28.1 44.3 116.2 111.7 384.6
06/09 07:00 11.6 89 9.25 9.9 11 13 1022.2 1 21.1 28.0 44.1 115.7 111.0 382.2
06/09 06:50 11.3 89 9.08 9.6 11 13 1022.1 1 20.7 27.8 43.5 114.2 109.0 375.3
06/09 06:40 11.5 90 9.3 9.9 9 11 1022.1 1 21.2 28.1 44.3 116.4 111.8 385.1
06/09 06:30 11.5 90 9.3 9.9 9 13 1022 1 21.2 28.1 44.3 116.4 111.8 385.1
06/09 06:20 11.3 90 9.18 9.7 11 15 1022 1 20.9 28.0 43.9 115.3 110.4 380.2
06/09 06:10 11.4 91 9.34 10 13 17 1021.8 1 21.3 28.2 44.6 117.0 112.5 387.5
06/09 06:00 11.5 91 9.4 10.1 13 17 1021.7 1 21.4 28.3 44.7 117.5 113.2 389.9
06/09 05:50 11.5 91 9.4 10.1 11 15 1021.6 1 21.4 28.3 44.7 117.5 113.2 389.9
06/09 05:40 11.7 92 9.62 10.4 13 20 1021.5 1 21.9 28.6 45.6 119.7 116.0 399.7
06/09 05:30 11.4 92 9.44 10.1 11 17 1021.4 1 21.5 28.4 45.0 118.1 113.9 392.3
06/09 05:20 11.3 92 9.39 10 13 20 1021.3 1 21.4 28.3 44.8 117.6 113.3 390.3
06/09 05:10 11.2 92 9.33 10 13 15 1021.1 1 21.3 28.2 44.6 117.1 112.6 387.8
06/09 05:00 11.3 92 9.39 10 13 17 1021 1 21.4 28.3 44.8 117.6 113.3 390.2
06/09 04:50 11.3 92 9.39 10 15 20 1020.9 1 21.4 28.3 44.8 117.6 113.3 390.2
06/09 04:40 11.3 92 9.39 10 13 17 1020.9 1 21.4 28.3 44.8 117.6 113.3 390.2
06/09 04:30 11.3 92 9.39 10 15 19 1020.9 1 21.4 28.3 44.8 117.6 113.3 390.2
06/09 04:20 11.3 92 9.39 10 13 19 1020.7 1 21.4 28.3 44.8 117.6 113.3 390.1
06/09 04:10 11.3 92 9.39 10 13 19 1020.7 1 21.4 28.3 44.8 117.6 113.3 390.1
06/09 04:00 11.4 92 9.44 10.1 11 17 1020.6 1 21.5 28.3 44.9 118.0 113.8 392.1
06/09 03:50 11.8 92 9.68 10.5 15 26 1020.6 1 22.0 28.6 45.7 120.1 116.6 401.9
06/09 03:40 12 91 9.7 10.6 15 22 1020.6 1 22.0 28.6 45.7 120.1 116.6 401.9
06/09 03:30 11.8 90 9.47 10.2 13 19 1020.6 1 21.5 28.2 44.8 117.7 113.7 391.5
06/09 03:20 11.8 89 9.37 10 13 17 1020.6 1 21.3 28.1 44.4 116.6 112.3 386.6
06/09 03:10 12 88 9.38 10.1 13 17 1020.4 1 21.3 28.0 44.3 116.4 112.1 386.0
06/09 03:00 12 88 9.38 10.1 15 22 1020.3 1 21.3 28.0 44.3 116.4 112.1 386.0
06/09 02:50 12 88 9.38 10.1 19 24 1020.2 1 21.3 28.0 44.3 116.4 112.1 386.0
06/09 02:40 12 88 9.38 10.1 17 24 1020.3 1 21.3 28.0 44.3 116.4 112.1 386.0
06/09 02:30 12 88 9.38 10.1 20 28 1020.4 1 21.3 28.0 44.3 116.4 112.1 386.0
06/09 02:20 12.1 87 9.33 10 22 28 1020.6 1 21.2 27.9 44.1 115.7 111.3 383.2
06/09 02:10 12 87 9.27 9.9 19 24 1020.6 1 21.1 27.8 43.9 115.2 110.6 380.7
06/09 02:00 11.9 87 9.22 9.8 19 24 1020.7 1 21.0 27.8 43.7 114.7 110.0 378.8
06/09 01:50 11.9 87 9.22 9.8 20 26 1020.6 1 21.0 27.8 43.7 114.7 110.0 378.8
06/09 01:40 12.2 87 9.39 10.1 20 28 1020.7 1 21.4 28.0 44.3 116.2 112.0 385.6
06/09 01:30 12 86 9.17 9.7 17 24 1020.8 1 20.9 27.7 43.4 114.0 109.2 375.9
06/09 01:20 12 86 9.17 9.7 13 19 1020.9 1 20.9 27.7 43.4 114.1 109.2 375.9
06/09 01:10 12.2 86 9.28 9.9 17 20 1020.8 1 21.1 27.8 43.8 115.0 110.4 380.3
06/09 01:00 12.2 85 9.17 9.8 19 26 1020.9 1 20.9 27.6 43.3 113.8 108.9 375.0
06/09 00:50 12.3 85 9.23 9.9 20 32 1020.7 1 21.0 27.7 43.5 114.3 109.6 377.3
06/09 00:40 12.3 84 9.12 9.7 22 33 1020.5 1 20.8 27.5 43.1 113.0 108.0 372.0
06/09 00:30 12.2 83 8.96 9.4 19 24 1020.4 1 20.4 27.2 42.4 111.4 106.0 364.7
06/09 00:20 12.3 83 9.01 9.5 17 22 1020.3 1 20.5 27.3 42.6 111.8 106.5 366.6
06/09 00:10 12.5 84 9.24 9.9 19 26 1020.3 1 21.0 27.6 43.4 114.0 109.4 376.7
06/09 00:00 12.5 82 9.02 9.5 20 30 1020.3 1 20.5 27.2 42.5 111.6 106.4 366.1
05/09 23:50 12.6 82 9.07 9.6 17 24 1020.3 1 20.6 27.3 42.7 112.0 106.9 368.1
05/09 23:40 12.5 83 9.13 9.7 20 32 1020.2 1 20.8 27.4 43.0 112.8 107.9 371.4
05/09 23:30 12.3 87 9.45 10.2 20 32 1020.3 1 21.5 28.0 44.4 116.7 112.6 387.9
05/09 23:20 12.6 85 9.4 10.1 22 35 1020.3 1 21.4 27.9 44.1 115.7 111.5 384.0
05/09 23:10 12.8 81 9.07 9.6 22 44 1020.2 1 20.6 27.2 42.6 111.7 106.6 367.1
05/09 23:00 12.6 81 8.96 9.4 20 28 1020.1 1 20.4 27.1 42.2 110.8 105.4 362.7
05/09 22:50 12.6 81 8.96 9.4 20 30 1020 1 20.4 27.1 42.2 110.7 105.4 362.7
05/09 22:40 12.8 80 8.96 9.4 24 32 1019.8 1 20.4 27.0 42.1 110.4 105.1 361.7
05/09 22:30 12.8 81 9.07 9.6 20 30 1019.9 1 20.6 27.2 42.5 111.7 106.6 367.0
05/09 22:20 12.7 82 9.13 9.7 19 26 1019.8 1 20.8 27.3 42.8 112.5 107.6 370.3
05/09 22:10 12.8 82 9.19 9.8 20 30 1019.8 1 20.9 27.4 43.0 113.0 108.2 372.7
05/09 22:00 12.6 81 8.96 9.4 20 28 1019.7 1 20.4 27.1 42.2 110.7 105.4 362.6
05/09 21:50 12.7 81 9.02 9.5 24 35 1019.6 1 20.5 27.2 42.4 111.2 106.0 365.0
05/09 21:40 12.8 81 9.07 9.6 24 35 1019.4 1 20.6 27.2 42.5 111.6 106.6 366.9
05/09 21:30 12.7 81 9.02 9.5 24 35 1019.3 1 20.5 27.1 42.4 111.2 106.0 364.9
05/09 21:20 12.9 82 9.24 9.9 20 30 1019.3 1 21.0 27.5 43.2 113.3 108.7 374.5
05/09 21:10 12.8 82 9.19 9.8 22 32 1019.2 1 20.9 27.4 43.0 112.9 108.2 372.6
05/09 21:00 12.8 82 9.19 9.8 20 30 1019.1 1 20.9 27.4 43.0 112.9 108.2 372.5
05/09 20:50 12.8 82 9.19 9.8 20 32 1019 1 20.9 27.4 43.0 112.9 108.2 372.5

Last Refresh: 06-Sep-2026 13:29:56

Bureau of Meteorology